Tracking 19286 objects as of 18-Nov-2018
HD Live streaming from Space Station
objects crossing your sky now

COSMOS 1470

Track COSMOS 1470 now!
10-day predictions
COSMOS 1470 is classified as:


NORAD ID: 14147
Int'l Code: 1983-061A
Perigee: 530.6 km
Apogee: 549.6 km
Inclination: 82.5 °
Period: 95.3 minutes
Semi major axis: 6911 km
RCS: 8.3388 m2 (large)
Launch date: June 23, 1983
Source: Commonwealth of Independent States (former USSR) (CIS)
Launch site: PLESETSK MISSILE AND SPACE COMPLEX (PKMTR)
aabbcc
Your satellite tracking list
Your tracking list is empty




NASA's NSSDC Master Catalog

Two Line Element Set (TLE):
1 14147U 83061A   18322.34529800  .00001155  00000-0  67144-4 0  9990
2 14147  82.4851 249.0015 0013805 276.6096  83.3563 15.11062590683208
Source of the keplerian elements: AFSPC